Вернуться в каталог

STARLINK-11279

АктивенСвязьVLEO
NORAD 61206·PAYLOAD·🇺🇸 United States

Запущен Sep 20, 2024 с Vandenberg Space Force Base

Loading…

Ближайшие Пролёты (ближайшие 24 часа)

TLE

СвежийSource: CelesTrak SupGP

Эпоха: Sep 14, 2026, 22:35 UTC

1 61206C 24171G   26257.94145833 -.00077732  00000+0 -64025-3 0  2573
2 61206  53.1571 323.1087 0001127  78.2088 356.1273 15.69750392    12

Отслеживайте STARLINK-11279 в реальном времени с AllMySat

Download on the App Store